Time,TemperatureF,DewpointF,PressureIn,WindDirection,WindDirectionDegrees,WindSpeedMPH,WindSpeedGustMPH,Humidity,HourlyPrecipIn,Conditions,Clouds,dailyrainin,SolarRadiationWatts/m^2,SoftwareType,DateUTC
2013-06-28 00:02:00,84.0,26.0,-100.00,ENE,58,21.0,27.0,11,-99.99,,,-99.99,0.000000,,2013-06-28 06:02:00,
2013-06-28 00:12:00,85.0,30.0,-100.00,ENE,78,21.0,30.0,13,-99.99,,,-99.99,0.000000,,2013-06-28 06:12:00,
2013-06-28 00:22:00,85.0,32.0,-100.00,ENE,65,18.0,29.0,14,-99.99,,,-99.99,0.000000,,2013-06-28 06:22:00,
2013-06-28 00:30:00,84.0,33.0,-100.00,ENE,62,21.0,29.0,16,-99.99,,,-99.99,0.000000,,2013-06-28 06:30:00,
2013-06-28 00:33:00,85.0,32.0,-100.00,ENE,65,18.0,29.0,14,-99.99,,,-99.99,0.000000,,2013-06-28 06:33:00,
2013-06-28 00:42:00,84.0,33.0,-100.00,NE,56,19.0,27.0,15,-99.99,,,-99.99,0.000000,,2013-06-28 06:42:00,
2013-06-28 01:01:00,84.0,33.0,-100.00,ENE,62,21.0,29.0,16,-99.99,,,-99.99,0.000000,,2013-06-28 07:01:00,
2013-06-28 01:11:00,84.0,33.0,-100.00,ENE,62,21.0,29.0,16,-99.99,,,-99.99,0.000000,,2013-06-28 07:11:00,
2013-06-28 01:22:00,84.0,33.0,-100.00,ENE,62,21.0,29.0,16,-99.99,,,-99.99,0.000000,,2013-06-28 07:22:00,
2013-06-28 03:02:00,82.0,32.0,30.21,NE,46,19.0,27.0,16,-99.99,,,-99.99,0.000000,,2013-06-28 09:02:00,
2013-06-28 03:11:00,82.0,35.0,-100.00,NE,48,18.0,23.0,18,-99.99,,,-99.99,0.000000,,2013-06-28 09:11:00,
2013-06-28 03:22:00,81.0,35.0,-100.00,NE,46,18.0,22.0,18,-99.99,,,-99.99,0.000000,,2013-06-28 09:22:00,
2013-06-28 03:33:00,81.0,35.0,30.20,NE,46,18.0,22.0,18,-99.99,,,-99.99,0.000000,,2013-06-28 09:33:00,
2013-06-28 03:42:00,82.0,35.0,-100.00,NE,51,16.0,21.0,19,-99.99,,,-99.99,0.000000,,2013-06-28 09:42:00,
2013-06-28 04:02:00,82.0,35.0,-100.00,NE,40,18.0,23.0,18,-99.99,,,-99.99,0.000000,,2013-06-28 10:02:00,
2013-06-28 04:11:00,81.0,35.0,-100.00,NE,38,18.0,22.0,18,-99.99,,,-99.99,0.000000,,2013-06-28 10:11:00,
2013-06-28 04:22:00,81.0,34.0,-100.00,NE,39,20.0,24.0,18,-99.99,,,-99.99,0.000000,,2013-06-28 10:22:00,
2013-06-28 04:33:00,81.0,34.0,-100.00,NE,39,20.0,24.0,18,-99.99,,,-99.99,0.000000,,2013-06-28 10:33:00,
2013-06-28 04:42:00,80.0,35.0,-100.00,NE,38,20.0,24.0,19,-99.99,,,-99.99,0.000000,,2013-06-28 10:42:00,
2013-06-28 05:02:00,80.0,34.0,-100.00,NE,41,16.0,20.0,19,-99.99,,,-99.99,0.000000,,2013-06-28 11:02:00,
2013-06-28 05:11:00,79.0,35.0,-100.00,NNE,33,18.0,23.0,20,-99.99,,,-99.99,0.000000,,2013-06-28 11:11:00,
2013-06-28 05:22:00,79.0,35.0,-100.00,NNE,32,16.0,21.0,20,-99.99,,,-99.99,0.000000,,2013-06-28 11:22:00,
2013-06-28 05:34:00,79.0,35.0,-100.00,NNE,32,16.0,21.0,20,-99.99,,,-99.99,0.000000,,2013-06-28 11:34:00,
2013-06-28 05:43:00,79.0,35.0,-100.00,NNE,31,18.0,21.0,20,-99.99,,,-99.99,0.000000,,2013-06-28 11:43:00,
2013-06-28 06:01:00,78.0,35.0,-100.00,NE,35,18.0,22.0,21,-99.99,,,-99.99,0.000000,,2013-06-28 12:01:00,
2013-06-28 06:12:00,77.0,36.0,-100.00,NE,37,17.0,23.0,22,-99.99,,,-99.99,0.000000,,2013-06-28 12:12:00,
2013-06-28 06:22:00,76.0,37.0,-100.00,NE,46,21.0,30.0,23,-99.99,,,-99.99,0.700000,,2013-06-28 12:22:00,
2013-06-28 06:33:00,76.0,37.0,-100.00,NE,46,21.0,30.0,23,-99.99,,,-99.99,0.700000,,2013-06-28 12:33:00,
2013-06-28 06:43:00,75.0,37.0,-100.00,NE,50,22.0,31.0,25,-99.99,,,-99.99,4.180000,,2013-06-28 12:43:00,
2013-06-28 07:01:00,75.0,37.0,-100.00,NE,46,24.0,30.0,25,-99.99,,,-99.99,17.430000,,2013-06-28 13:01:00,
2013-06-28 07:11:00,75.0,37.0,-100.00,NE,52,27.0,34.0,25,-99.99,,,-99.99,32.080002,,2013-06-28 13:11:00,
2013-06-28 07:33:00,74.0,36.0,-100.00,ENE,59,19.0,26.0,25,-99.99,,,-99.99,50.910000,,2013-06-28 13:33:00,
2013-06-28 07:43:00,74.0,36.0,-100.00,ENE,66,20.0,25.0,25,-99.99,,,-99.99,61.369999,,2013-06-28 13:43:00,
2013-06-28 08:02:00,75.0,37.0,-100.00,NE,54,23.0,28.0,24,-99.99,,,-99.99,72.519997,,2013-06-28 14:02:00,
2013-06-28 08:12:00,75.0,37.0,-100.00,NE,51,28.0,35.0,25,-99.99,,,-99.99,96.930000,,2013-06-28 14:12:00,
2013-06-28 08:22:00,76.0,38.0,-100.00,ENE,64,28.0,35.0,26,-99.99,,,-99.99,151.320007,,2013-06-28 14:22:00,
2013-06-28 08:33:00,76.0,38.0,-100.00,ENE,64,28.0,35.0,26,-99.99,,,-99.99,151.320007,,2013-06-28 14:33:00,
2013-06-28 08:44:00,76.0,37.0,30.29,ENE,77,31.0,37.0,25,-99.99,,,-99.99,228.729996,,2013-06-28 14:44:00,
2013-06-28 09:02:00,76.0,37.0,-100.00,ENE,78,27.0,31.0,24,-99.99,,,-99.99,257.320007,,2013-06-28 15:02:00,
2013-06-28 09:11:00,77.0,37.0,30.30,ENE,78,27.0,32.0,23,-99.99,,,-99.99,403.059998,,2013-06-28 15:11:00,
2013-06-28 09:24:00,77.0,37.0,30.30,ENE,77,29.0,35.0,23,-99.99,,,-99.99,306.130005,,2013-06-28 15:24:00,
2013-06-28 09:34:00,77.0,37.0,30.30,ENE,77,29.0,35.0,23,-99.99,,,-99.99,306.130005,,2013-06-28 15:34:00,
2013-06-28 09:43:00,77.0,37.0,30.30,ENE,77,28.0,33.0,23,-99.99,,,-99.99,200.830002,,2013-06-28 15:43:00,
2013-06-28 10:00:00,79.0,36.0,-100.00,ENE,78,27.0,32.0,21,-99.99,,,-99.99,396.779999,,2013-06-28 16:00:00,
2013-06-28 10:01:00,77.0,37.0,-100.00,East,80,21.0,25.0,23,-99.99,,,-99.99,326.350006,,2013-06-28 16:01:00,
2013-06-28 10:11:00,79.0,36.0,-100.00,East,80,20.0,27.0,21,-99.99,,,-99.99,674.320007,,2013-06-28 16:11:00,
2013-06-28 10:24:00,79.0,36.0,-100.00,ENE,78,27.0,32.0,21,-99.99,,,-99.99,396.779999,,2013-06-28 16:24:00,
2013-06-28 10:33:00,79.0,36.0,-100.00,ENE,78,27.0,32.0,21,-99.99,,,-99.99,396.779999,,2013-06-28 16:33:00,
2013-06-28 10:44:00,79.0,36.0,-100.00,ENE,78,27.0,32.0,21,-99.99,,,-99.99,396.779999,,2013-06-28 16:44:00,
2013-06-28 10:53:00,79.0,36.0,-100.00,ENE,78,27.0,32.0,21,-99.99,,,-99.99,396.779999,,2013-06-28 16:53:00,
2013-06-28 11:44:00,81.0,34.0,30.33,ENE,78,23.0,30.0,18,-99.99,,,-99.99,290.790009,,2013-06-28 17:44:00,
2013-06-28 12:02:00,82.0,33.0,-100.00,ENE,76,23.0,27.0,17,-99.99,,,-99.99,309.619995,,2013-06-28 18:02:00,
2013-06-28 12:11:00,82.0,32.0,-100.00,East,85,20.0,25.0,16,-99.99,,,-99.99,447.690002,,2013-06-28 18:11:00,
2013-06-28 12:22:00,83.0,32.0,30.32,East,81,21.0,28.0,15,-99.99,,,-99.99,773.340027,,2013-06-28 18:22:00,
2013-06-28 12:33:00,83.0,32.0,-100.00,East,81,21.0,28.0,15,-99.99,,,-99.99,773.340027,,2013-06-28 18:33:00,
2013-06-28 12:43:00,84.0,32.0,30.31,East,83,22.0,31.0,15,-99.99,,,-99.99,1027.170044,,2013-06-28 18:43:00,
2013-06-28 13:01:00,85.0,32.0,-100.00,East,84,21.0,28.0,14,-99.99,,,-99.99,643.640015,,2013-06-28 19:01:00,
2013-06-28 13:11:00,85.0,31.0,30.30,East,84,21.0,31.0,14,-99.99,,,-99.99,679.900024,,2013-06-28 19:11:00,
2013-06-28 13:22:00,86.0,32.0,30.29,East,86,24.0,33.0,14,-99.99,,,-99.99,1119.920044,,2013-06-28 19:22:00,
2013-06-28 13:33:00,86.0,32.0,-100.00,East,86,24.0,33.0,14,-99.99,,,-99.99,1119.920044,,2013-06-28 19:33:00,
2013-06-28 13:43:00,86.0,32.0,30.28,East,86,27.0,40.0,14,-99.99,,,-99.99,1049.489990,,2013-06-28 19:43:00,
2013-06-28 14:02:00,87.0,32.0,30.27,East,88,30.0,42.0,13,-99.99,,,-99.99,1052.280029,,2013-06-28 20:02:00,
2013-06-28 14:11:00,88.0,32.0,30.26,East,85,33.0,42.0,13,-99.99,,,-99.99,812.390015,,2013-06-28 20:11:00,
2013-06-28 14:22:00,88.0,32.0,30.25,East,84,33.0,45.0,13,-99.99,,,-99.99,890.489990,,2013-06-28 20:22:00,
2013-06-28 14:33:00,88.0,32.0,30.25,East,84,33.0,45.0,13,-99.99,,,-99.99,890.489990,,2013-06-28 20:33:00,
2013-06-28 14:43:00,88.0,32.0,30.26,East,79,27.0,38.0,13,-99.99,,,-99.99,811.700012,,2013-06-28 20:43:00,
2013-06-28 15:01:00,88.0,32.0,30.26,ENE,75,26.0,37.0,13,-99.99,,,-99.99,896.770020,,2013-06-28 21:01:00,
2013-06-28 15:11:00,88.0,33.0,30.26,East,90,24.0,34.0,13,-99.99,,,-99.99,895.380005,,2013-06-28 21:11:00,
2013-06-28 15:23:00,88.0,33.0,30.26,East,99,18.0,28.0,13,-99.99,,,-99.99,882.820007,,2013-06-28 21:23:00,
2013-06-28 15:34:00,88.0,33.0,-100.00,East,99,18.0,28.0,13,-99.99,,,-99.99,882.820007,,2013-06-28 21:34:00,
2013-06-28 15:43:00,89.0,33.0,30.23,East,83,27.0,44.0,13,-99.99,,,-99.99,771.950012,,2013-06-28 21:43:00,
2013-06-28 16:01:00,89.0,34.0,-100.00,ENE,77,25.0,41.0,14,-99.99,,,-99.99,711.979980,,2013-06-28 22:01:00,
2013-06-28 16:11:00,89.0,35.0,30.22,East,89,27.0,40.0,14,-99.99,,,-99.99,834.010010,,2013-06-28 22:11:00,
2013-06-28 16:34:00,90.0,34.0,30.20,East,85,35.0,50.0,14,-99.99,,,-99.99,795.659973,,2013-06-28 22:34:00,
2013-06-28 16:43:00,89.0,35.0,30.21,East,86,32.0,46.0,14,-99.99,,,-99.99,585.760010,,2013-06-28 22:43:00,
2013-06-28 17:01:00,89.0,35.0,30.21,East,84,29.0,44.0,14,-99.99,,,-99.99,316.589996,,2013-06-28 23:01:00,
2013-06-28 17:11:00,89.0,35.0,30.20,East,86,31.0,42.0,14,-99.99,,,-99.99,262.200012,,2013-06-28 23:11:00,
2013-06-28 17:23:00,89.0,35.0,30.21,East,82,26.0,37.0,14,-99.99,,,-99.99,511.149994,,2013-06-28 23:23:00,
2013-06-28 17:34:00,89.0,35.0,-100.00,East,82,26.0,37.0,14,-99.99,,,-99.99,511.149994,,2013-06-28 23:34:00,
2013-06-28 17:43:00,89.0,35.0,30.20,ENE,76,27.0,39.0,15,-99.99,,,-99.99,175.029999,,2013-06-28 23:43:00,
2013-06-28 17:53:00,88.0,35.0,30.20,ENE,75,28.0,38.0,15,-99.99,,,-99.99,127.610001,,2013-06-28 23:53:00,
2013-06-28 18:02:00,88.0,35.0,-100.00,ENE,75,28.0,38.0,15,-99.99,,,-99.99,127.610001,,2013-06-29 00:02:00,
2013-06-28 18:11:00,88.0,36.0,-100.00,East,81,27.0,36.0,15,-99.99,,,-99.99,196.649994,,2013-06-29 00:11:00,
2013-06-28 18:22:00,88.0,36.0,-100.00,East,87,23.0,34.0,15,-99.99,,,-99.99,205.020004,,2013-06-29 00:22:00,
2013-06-28 18:33:00,88.0,36.0,-100.00,East,87,23.0,34.0,15,-99.99,,,-99.99,205.020004,,2013-06-29 00:33:00,
2013-06-28 18:42:00,88.0,36.0,30.20,East,87,23.0,34.0,15,-99.99,,,-99.99,205.020004,,2013-06-29 00:42:00,
2013-06-28 18:52:00,89.0,36.0,30.18,East,85,29.0,39.0,15,-99.99,,,-99.99,157.600006,,2013-06-29 00:52:00,
2013-06-28 19:01:00,89.0,36.0,30.18,East,85,29.0,39.0,15,-99.99,,,-99.99,157.600006,,2013-06-29 01:01:00,
2013-06-28 19:11:00,88.0,37.0,30.16,East,82,36.0,43.0,16,-99.99,,,-99.99,140.860001,,2013-06-29 01:11:00,
2013-06-28 19:22:00,88.0,38.0,30.17,East,85,34.0,40.0,17,-99.99,,,-99.99,179.910004,,2013-06-29 01:22:00,
2013-06-28 19:31:00,88.0,38.0,30.17,East,85,34.0,40.0,17,-99.99,,,-99.99,179.910004,,2013-06-29 01:31:00,
2013-06-28 19:42:00,87.0,38.0,30.18,East,82,31.0,39.0,17,-99.99,,,-99.99,176.429993,,2013-06-29 01:42:00,
2013-06-28 20:21:00,78.0,46.0,-100.00,East,86,17.0,27.0,32,-99.99,,,-99.99,16.740000,,2013-06-29 02:21:00,
2013-06-28 20:31:00,78.0,46.0,-100.00,East,86,17.0,27.0,32,-99.99,,,-99.99,16.740000,,2013-06-29 02:31:00,
2013-06-28 20:41:00,81.0,46.0,-100.00,East,92,13.0,21.0,28,-99.99,,,-99.99,7.670000,,2013-06-29 02:41:00,
2013-06-28 20:51:00,82.0,45.0,-100.00,East,99,11.0,16.0,27,-99.99,,,-99.99,2.090000,,2013-06-29 02:51:00,
2013-06-28 21:01:00,82.0,45.0,-100.00,East,99,11.0,16.0,27,-99.99,,,-99.99,2.090000,,2013-06-29 03:01:00,
2013-06-28 21:11:00,82.0,44.0,-100.00,ESE,102,11.0,15.0,26,-99.99,,,-99.99,0.000000,,2013-06-29 03:11:00,
2013-06-28 21:21:00,82.0,44.0,-100.00,East,101,10.0,16.0,25,-99.99,,,-99.99,0.000000,,2013-06-29 03:21:00,
2013-06-28 21:32:00,82.0,44.0,-100.00,East,101,10.0,16.0,25,-99.99,,,-99.99,0.000000,,2013-06-29 03:32:00,
2013-06-28 21:41:00,82.0,44.0,-100.00,East,85,9.0,13.0,26,-99.99,,,-99.99,0.000000,,2013-06-29 03:41:00,
2013-06-28 21:51:00,82.0,44.0,-100.00,East,97,13.0,22.0,25,-99.99,,,-99.99,0.000000,,2013-06-29 03:51:00,
2013-06-28 22:01:00,82.0,44.0,-100.00,East,97,13.0,22.0,25,-99.99,,,-99.99,0.000000,,2013-06-29 04:01:00,
2013-06-28 22:11:00,82.0,44.0,-100.00,East,81,21.0,28.0,26,-99.99,,,-99.99,0.000000,,2013-06-29 04:11:00,
2013-06-28 22:23:00,80.0,45.0,-100.00,ENE,70,14.0,18.0,29,-99.99,,,-99.99,0.000000,,2013-06-29 04:23:00,
2013-06-28 22:31:00,80.0,45.0,-100.00,ENE,70,14.0,18.0,29,-99.99,,,-99.99,0.000000,,2013-06-29 04:31:00,
2013-06-28 22:41:00,81.0,43.0,-100.00,NE,56,12.0,15.0,26,-99.99,,,-99.99,0.000000,,2013-06-29 04:41:00,
2013-06-28 22:51:00,80.0,43.0,-100.00,East,79,12.0,14.0,26,-99.99,,,-99.99,0.000000,,2013-06-29 04:51:00,
2013-06-28 23:01:00,80.0,43.0,-100.00,East,79,12.0,14.0,26,-99.99,,,-99.99,0.000000,,2013-06-29 05:01:00,
2013-06-28 23:10:00,81.0,42.0,-100.00,ENE,69,13.0,18.0,25,-99.99,,,-99.99,0.000000,,2013-06-29 05:10:00,
2013-06-28 23:21:00,79.0,42.0,-100.00,ENE,61,15.0,21.0,26,-99.99,,,-99.99,0.000000,,2013-06-29 05:21:00,
2013-06-28 23:31:00,79.0,42.0,-100.00,ENE,61,15.0,21.0,26,-99.99,,,-99.99,0.000000,,2013-06-29 05:31:00,
2013-06-28 23:41:00,80.0,41.0,-100.00,NE,42,17.0,25.0,25,-99.99,,,-99.99,0.000000,,2013-06-29 05:41:00,